JML101 EDNY-LQSA

Flight info

Callsign JML101
Flight time 1h 9m
Altitude 39000
Route BEMKI1W BEMKI L607 XEBIX Z2 TUNUM Z204 GEDSO DCT MAXUR DCT BOSNA
Aircraft B737/M-SDE2E3FGHIRWXY/LB1

Departure

Time 2026-04-24 19:26
Airport Bodensee Airport Friedrichshafen (EDNY)

Arrival

Time 2026-04-24 20:36
Airport Sarajevo International Airport (LQSA)
Time Latitude Longitude Altitude Speed Heading
2026-04-24 19:01 47.67362 9.52380 1376 ft 0 kts 194°
2026-04-24 19:21 47.67358 9.52375 1372 ft 1 kts 225°
2026-04-24 19:22 47.67362 9.52365 1375 ft 1 kts 313°
2026-04-24 19:22 47.67377 9.52353 1373 ft 3 kts 328°
2026-04-24 19:22 47.67395 9.52346 1375 ft 4 kts
2026-04-24 19:22 47.67420 9.52371 1373 ft 5 kts 56°
2026-04-24 19:23 47.67437 9.52410 1376 ft 4 kts 58°
2026-04-24 19:23 47.67453 9.52449 1374 ft 4 kts 59°
2026-04-24 19:23 47.67468 9.52488 1374 ft 5 kts 62°
2026-04-24 19:23 47.67479 9.52519 1377 ft 3 kts 62°
2026-04-24 19:24 47.67490 9.52546 1377 ft 3 kts 60°
2026-04-24 19:24 47.67504 9.52576 1377 ft 4 kts 46°
2026-04-24 19:24 47.67528 9.52595 1379 ft 2 kts
2026-04-24 19:24 47.67549 9.52585 1377 ft 5 kts 330°
2026-04-24 19:25 47.67593 9.52548 1379 ft 10 kts 330°
2026-04-24 19:25 47.67640 9.52497 1378 ft 7 kts 292°
2026-04-24 19:25 47.67628 9.52429 1375 ft 4 kts 242°
2026-04-24 19:25 47.67622 9.52411 1376 ft 16 kts 241°
2026-04-24 19:26 47.67410 9.51865 1368 ft 104 kts 240°
2026-04-24 19:26 47.66947 9.50612 1465 ft 162 kts 244°
2026-04-24 19:26 47.66398 9.49077 2246 ft 171 kts 240°
2026-04-24 19:26 47.65834 9.47554 3305 ft 169 kts 239°
2026-04-24 19:27 47.65176 9.46020 4137 ft 185 kts 237°
2026-04-24 19:27 47.64457 9.44289 4620 ft 213 kts 240°
2026-04-24 19:27 47.63514 9.42530 5267 ft 222 kts 214°
2026-04-24 19:27 47.62009 9.41844 5949 ft 235 kts 174°
2026-04-24 19:28 47.60567 9.42795 6867 ft 237 kts 135°
2026-04-24 19:28 47.59691 9.45008 7144 ft 271 kts 101°
2026-04-24 19:28 47.59361 9.47682 8501 ft 242 kts 98°
2026-04-24 19:28 47.59268 9.50008 10146 ft 222 kts 79°
2026-04-24 19:29 47.60709 9.54531 11072 ft 263 kts 67°
2026-04-24 19:29 47.61200 9.56999 12558 ft 240 kts 73°
2026-04-24 19:29 47.61587 9.59417 13543 ft 246 kts 75°
2026-04-24 19:30 47.61963 9.62042 13867 ft 276 kts 76°
2026-04-24 19:30 47.62368 9.64991 14118 ft 308 kts 76°
2026-04-24 19:30 47.62824 9.68250 14327 ft 338 kts 76°
2026-04-24 19:30 47.63330 9.71787 14721 ft 359 kts 76°
2026-04-24 19:31 47.63865 9.75460 15543 ft 366 kts 76°
2026-04-24 19:31 47.64409 9.79152 16524 ft 368 kts 76°
2026-04-24 19:31 47.64957 9.82837 17442 ft 372 kts 76°
2026-04-24 19:31 47.65522 9.86614 18307 ft 378 kts 76°
2026-04-24 19:32 47.66094 9.90442 19095 ft 383 kts 76°
2026-04-24 19:32 47.66437 9.94374 19837 ft 390 kts 92°
2026-04-24 19:32 47.65852 9.98305 20641 ft 395 kts 111°
2026-04-24 19:32 47.64698 10.02026 21488 ft 398 kts 114°
2026-04-24 19:33 47.63517 10.05777 22195 ft 404 kts 114°
2026-04-24 19:33 47.62332 10.09589 22898 ft 410 kts 114°
2026-04-24 19:33 47.61144 10.13451 23649 ft 414 kts 113°
2026-04-24 19:33 47.59994 10.17210 24252 ft 417 kts 113°
2026-04-24 19:34 47.58793 10.21149 24888 ft 420 kts 113°
2026-04-24 19:34 47.57600 10.25055 25491 ft 423 kts 113°
2026-04-24 19:34 47.56333 10.29012 26065 ft 428 kts 119°
2026-04-24 19:34 47.54420 10.32408 26600 ft 434 kts 140°
2026-04-24 19:35 47.51981 10.35038 27276 ft 434 kts 144°
2026-04-24 19:35 47.49509 10.37634 27819 ft 438 kts 143°
2026-04-24 19:35 47.47030 10.40305 28305 ft 443 kts 143°
2026-04-24 19:35 47.44542 10.43023 28822 ft 446 kts 143°
2026-04-24 19:36 47.42143 10.45949 29296 ft 449 kts 133°
2026-04-24 19:36 47.40277 10.49650 29760 ft 451 kts 118°
2026-04-24 19:36 47.39057 10.53915 30241 ft 452 kts 104°
2026-04-24 19:36 47.38413 10.58461 30641 ft 453 kts 99°
2026-04-24 19:37 47.37831 10.63051 30962 ft 457 kts 99°
2026-04-24 19:37 47.37234 10.67672 31288 ft 460 kts 100°
2026-04-24 19:37 47.36618 10.72304 31634 ft 462 kts 100°
2026-04-24 19:37 47.35982 10.76969 32054 ft 462 kts 100°
2026-04-24 19:38 47.35339 10.81600 32576 ft 459 kts 101°
2026-04-24 19:38 47.34693 10.86195 33053 ft 458 kts 101°
2026-04-24 19:38 47.34043 10.90793 33486 ft 457 kts 101°
2026-04-24 19:38 47.33401 10.95315 33898 ft 457 kts 101°
2026-04-24 19:39 47.32750 10.99896 34287 ft 456 kts 101°
2026-04-24 19:39 47.32100 11.04462 34602 ft 456 kts 101°
2026-04-24 19:39 47.31446 11.09049 34902 ft 456 kts 101°
2026-04-24 19:39 47.30792 11.13620 35198 ft 457 kts 101°
2026-04-24 19:40 47.30134 11.18203 35512 ft 457 kts 101°
2026-04-24 19:40 47.29475 11.22780 35848 ft 456 kts 101°
2026-04-24 19:40 47.28815 11.27356 36181 ft 455 kts 101°
2026-04-24 19:40 47.28156 11.31905 36501 ft 455 kts 101°
2026-04-24 19:41 47.27495 11.36462 36795 ft 454 kts 101°
2026-04-24 19:41 47.26833 11.41010 37103 ft 454 kts 101°
2026-04-24 19:41 47.26168 11.45558 37392 ft 454 kts 102°
2026-04-24 19:41 47.25260 11.50003 37680 ft 455 kts 111°
2026-04-24 19:42 47.23882 11.54196 38020 ft 455 kts 121°
2026-04-24 19:42 47.22096 11.58031 38341 ft 454 kts 125°
2026-04-24 19:42 47.20247 11.61782 38607 ft 454 kts 125°
2026-04-24 19:42 47.18397 11.65554 38839 ft 455 kts 125°
2026-04-24 19:43 47.16562 11.69339 39065 ft 454 kts 124°
2026-04-24 19:43 47.12927 11.76924 39122 ft 457 kts 124°
2026-04-24 19:44 47.09259 11.84586 39110 ft 454 kts 124°
2026-04-24 19:44 47.05789 11.92238 39092 ft 452 kts 120°
2026-04-24 19:45 47.02543 12.00107 39094 ft 451 kts 119°
2026-04-24 19:45 46.99308 12.07993 39118 ft 450 kts 120°
2026-04-24 19:46 46.96045 12.15836 39126 ft 450 kts 120°
2026-04-24 19:46 46.92765 12.23651 39136 ft 450 kts 120°
2026-04-24 19:47 46.89500 12.31392 39142 ft 450 kts 120°
2026-04-24 19:47 46.86208 12.39174 39130 ft 450 kts 120°
2026-04-24 19:48 46.82908 12.46956 39117 ft 450 kts 120°
2026-04-24 19:48 46.77957 12.58591 39100 ft 449 kts 120°
2026-04-24 19:49 46.71334 12.74082 39068 ft 451 kts 120°
2026-04-24 19:50 46.64658 12.89604 39065 ft 453 kts 120°
2026-04-24 19:51 46.59652 13.01189 39077 ft 452 kts 120°
2026-04-24 19:52 46.54615 13.12795 39061 ft 452 kts 120°
2026-04-24 19:52 46.51252 13.20519 39062 ft 452 kts 120°
2026-04-24 19:53 46.47887 13.28223 39064 ft 451 kts 120°
2026-04-24 19:54 46.42833 13.39758 39056 ft 452 kts 120°
2026-04-24 19:54 46.39457 13.47435 39048 ft 451 kts 120°
2026-04-24 19:55 46.36649 13.53805 39054 ft 450 kts 120°
2026-04-24 19:55 46.32730 13.62672 39064 ft 449 kts 120°
2026-04-24 19:56 46.29353 13.70290 39063 ft 449 kts 120°
2026-04-24 19:56 46.25975 13.77888 39067 ft 449 kts 120°
2026-04-24 19:57 46.22594 13.85473 39064 ft 449 kts 120°
2026-04-24 19:57 46.19214 13.93033 39073 ft 447 kts 120°
2026-04-24 19:58 46.15834 14.00576 39072 ft 448 kts 120°
2026-04-24 19:58 46.12464 14.08075 39072 ft 449 kts 120°
2026-04-24 19:59 46.09043 14.15669 39071 ft 449 kts 120°
2026-04-24 19:59 46.05652 14.23174 39064 ft 450 kts 120°
2026-04-24 20:00 46.02233 14.30720 39069 ft 449 kts 120°
2026-04-24 20:00 45.98815 14.38245 39070 ft 449 kts 120°
2026-04-24 20:01 45.95386 14.45776 39071 ft 449 kts 120°
2026-04-24 20:01 45.91962 14.53273 39075 ft 449 kts 120°
2026-04-24 20:02 45.89110 14.59504 39072 ft 449 kts 120°
2026-04-24 20:02 45.85099 14.68242 39075 ft 448 kts 120°
2026-04-24 20:03 45.81668 14.75697 39076 ft 447 kts 120°
2026-04-24 20:03 45.78244 14.83119 39070 ft 446 kts 120°
2026-04-24 20:04 45.74839 14.90482 39066 ft 446 kts 120°
2026-04-24 20:04 45.71419 14.97893 39066 ft 445 kts 120°
2026-04-24 20:05 45.68015 15.05290 39062 ft 445 kts 120°
2026-04-24 20:05 45.64606 15.12683 39062 ft 445 kts 120°
2026-04-24 20:06 45.61204 15.20037 39049 ft 446 kts 120°
2026-04-24 20:06 45.57777 15.27422 39050 ft 445 kts 120°
2026-04-24 20:07 45.54929 15.33543 39042 ft 446 kts 120°
2026-04-24 20:07 45.50916 15.42148 39045 ft 446 kts 120°
2026-04-24 20:08 45.47482 15.49491 39045 ft 445 kts 120°
2026-04-24 20:08 45.44041 15.56830 39042 ft 445 kts 120°
2026-04-24 20:09 45.41177 15.62922 39041 ft 445 kts 120°
2026-04-24 20:09 45.37729 15.70241 39040 ft 445 kts 120°
2026-04-24 20:10 45.34278 15.77547 39037 ft 444 kts 120°
2026-04-24 20:10 45.30847 15.84793 39038 ft 444 kts 120°
2026-04-24 20:11 45.27393 15.92067 39040 ft 444 kts 120°
2026-04-24 20:11 45.23936 15.99330 39037 ft 443 kts 120°
2026-04-24 20:12 45.20482 16.06570 39047 ft 443 kts 120°
2026-04-24 20:12 45.17019 16.13808 39050 ft 443 kts 120°
2026-04-24 20:13 45.13557 16.21027 39047 ft 443 kts 120°
2026-04-24 20:13 45.10088 16.28241 39047 ft 443 kts 120°
2026-04-24 20:14 45.06619 16.35439 39047 ft 443 kts 120°
2026-04-24 20:14 45.03136 16.42648 38709 ft 449 kts 120°
2026-04-24 20:14 45.01370 16.46301 38071 ft 449 kts 120°
2026-04-24 20:15 44.99615 16.49919 37411 ft 446 kts 120°
2026-04-24 20:15 44.97863 16.53525 36751 ft 444 kts 121°
2026-04-24 20:15 44.96117 16.57117 36044 ft 443 kts 121°
2026-04-24 20:15 44.94370 16.60705 35274 ft 444 kts 121°
2026-04-24 20:16 44.92619 16.64302 34504 ft 445 kts 121°
2026-04-24 20:16 44.90865 16.67898 33647 ft 447 kts 121°
2026-04-24 20:16 44.89124 16.71463 33021 ft 443 kts 121°
2026-04-24 20:16 44.87389 16.75008 32390 ft 438 kts 122°
2026-04-24 20:17 44.85664 16.78528 31828 ft 433 kts 122°
2026-04-24 20:17 44.82267 16.85451 30681 ft 426 kts 122°
2026-04-24 20:17 44.80586 16.88872 30121 ft 423 kts 122°
2026-04-24 20:18 44.79459 16.91164 29667 ft 420 kts 122°
2026-04-24 20:18 44.77268 16.95611 28891 ft 414 kts 122°
2026-04-24 20:18 44.75635 16.98921 28305 ft 409 kts 122°
2026-04-24 20:18 44.74020 17.02193 27727 ft 405 kts 122°
2026-04-24 20:19 44.72418 17.05434 27166 ft 401 kts 122°
2026-04-24 20:19 44.70830 17.08645 26578 ft 398 kts 122°
2026-04-24 20:19 44.69253 17.11829 26015 ft 395 kts 122°
2026-04-24 20:19 44.67685 17.14991 25452 ft 392 kts 123°
2026-04-24 20:20 44.66128 17.18127 24906 ft 390 kts 123°
2026-04-24 20:20 44.64583 17.21238 24356 ft 388 kts 123°
2026-04-24 20:20 44.63036 17.24346 23781 ft 388 kts 123°
2026-04-24 20:20 44.61493 17.27447 23135 ft 386 kts 123°
2026-04-24 20:21 44.59957 17.30528 22533 ft 384 kts 123°
2026-04-24 20:21 44.58431 17.33583 21957 ft 381 kts 123°
2026-04-24 20:21 44.56937 17.36574 21402 ft 378 kts 123°
2026-04-24 20:21 44.55433 17.39580 20842 ft 375 kts 123°
2026-04-24 20:22 44.53941 17.42562 20305 ft 372 kts 123°
2026-04-24 20:22 44.52456 17.45525 19761 ft 370 kts 123°
2026-04-24 20:22 44.50975 17.48478 19209 ft 368 kts 123°
2026-04-24 20:22 44.49504 17.51407 18664 ft 367 kts 123°
2026-04-24 20:23 44.48038 17.54324 18045 ft 366 kts 123°
2026-04-24 20:23 44.46581 17.57219 17464 ft 363 kts 123°
2026-04-24 20:23 44.45132 17.60098 16894 ft 360 kts 123°
2026-04-24 20:23 44.43692 17.62952 16334 ft 357 kts 123°
2026-04-24 20:24 44.42265 17.65781 15793 ft 354 kts 123°
2026-04-24 20:24 44.40853 17.68580 15255 ft 352 kts 123°
2026-04-24 20:24 44.39445 17.71364 14721 ft 350 kts 123°
2026-04-24 20:24 44.38042 17.74133 14184 ft 348 kts 124°
2026-04-24 20:25 44.36365 17.76561 13584 ft 350 kts 146°
2026-04-24 20:25 44.34264 17.78132 13126 ft 344 kts 152°
2026-04-24 20:25 44.32133 17.79629 12559 ft 342 kts 152°
2026-04-24 20:25 44.30006 17.81131 12013 ft 340 kts 152°
2026-04-24 20:26 44.27898 17.82628 11472 ft 339 kts 152°
2026-04-24 20:26 44.25805 17.84121 10913 ft 338 kts 151°
2026-04-24 20:26 44.23717 17.85615 10476 ft 333 kts 151°
2026-04-24 20:26 44.21687 17.87067 10200 ft 324 kts 151°
2026-04-24 20:27 44.19726 17.88469 10052 ft 311 kts 150°
2026-04-24 20:27 44.17820 17.89834 9696 ft 307 kts 151°
2026-04-24 20:27 44.15925 17.91191 9286 ft 305 kts 151°
2026-04-24 20:27 44.14054 17.92529 8855 ft 298 kts 151°
2026-04-24 20:28 44.12230 17.93832 8495 ft 293 kts 151°
2026-04-24 20:28 44.10419 17.95126 8120 ft 291 kts 151°
2026-04-24 20:28 44.08626 17.96406 7720 ft 286 kts 151°
2026-04-24 20:28 44.06883 17.97653 7507 ft 276 kts 152°
2026-04-24 20:29 44.05768 17.98445 7427 ft 269 kts 152°
2026-04-24 20:29 44.03603 17.99984 7268 ft 257 kts 151°
2026-04-24 20:29 44.02040 18.01094 7136 ft 250 kts 152°
2026-04-24 20:29 44.00411 18.01990 6846 ft 251 kts 161°
2026-04-24 20:30 43.98755 18.02731 6522 ft 250 kts 161°
2026-04-24 20:30 43.97113 18.03472 6203 ft 246 kts 161°
2026-04-24 20:30 43.95496 18.04214 5884 ft 243 kts 161°
2026-04-24 20:30 43.93901 18.04957 5559 ft 240 kts 159°
2026-04-24 20:31 43.92541 18.06195 5264 ft 231 kts 125°
2026-04-24 20:31 43.91816 18.08094 5117 ft 220 kts 113°
2026-04-24 20:31 43.91132 18.09969 4924 ft 212 kts 116°
2026-04-24 20:31 43.90469 18.11721 4729 ft 200 kts 116°
2026-04-24 20:32 43.89843 18.13386 4532 ft 190 kts 116°
2026-04-24 20:32 43.89257 18.14956 4384 ft 181 kts 115°
2026-04-24 20:32 43.88691 18.16474 4178 ft 176 kts 116°
2026-04-24 20:32 43.88145 18.17963 3947 ft 169 kts 116°
2026-04-24 20:33 43.87615 18.19372 3702 ft 162 kts 116°
2026-04-24 20:33 43.87108 18.20719 3500 ft 151 kts 117°
2026-04-24 20:33 43.86628 18.22002 3299 ft 149 kts 117°
2026-04-24 20:33 43.86166 18.23238 3079 ft 140 kts 117°
2026-04-24 20:34 43.85729 18.24407 2883 ft 134 kts 117°
2026-04-24 20:34 43.85296 18.25559 2712 ft 136 kts 117°
2026-04-24 20:34 43.84862 18.26715 2515 ft 134 kts 117°
2026-04-24 20:34 43.84436 18.27853 2330 ft 132 kts 117°
2026-04-24 20:35 43.84016 18.28971 2147 ft 130 kts 117°
2026-04-24 20:35 43.83603 18.30088 1977 ft 129 kts 117°
2026-04-24 20:35 43.83193 18.31193 1802 ft 129 kts 117°
2026-04-24 20:35 43.82792 18.32261 1668 ft 118 kts 116°
2026-04-24 20:36 43.82482 18.33085 1674 ft 76 kts 117°
2026-04-24 20:36 43.82307 18.33549 1689 ft 30 kts 117°
2026-04-24 20:36 43.82271 18.33663 1691 ft 9 kts 92°
2026-04-24 20:36 43.82286 18.33696 1694 ft 2 kts
2026-04-24 20:37 43.82307 18.33683 1691 ft 6 kts 339°
2026-04-24 20:37 43.82366 18.33663 1691 ft 10 kts 346°
2026-04-24 20:37 43.82410 18.33643 1690 ft 2 kts 341°
2026-04-24 20:37 43.82427 18.33636 1689 ft 3 kts 351°
2026-04-24 20:38 43.82441 18.33653 1694 ft 3 kts 68°
2026-04-24 20:38 43.82436 18.33682 1689 ft 3 kts 110°
2026-04-24 20:38 43.82427 18.33714 1691 ft 4 kts 113°
2026-04-24 20:38 43.82419 18.33747 1690 ft 4 kts 91°
2026-04-24 20:39 43.82440 18.33766 1690 ft 5 kts 22°
2026-04-24 20:39 43.82475 18.33790 1690 ft 6 kts 27°
2026-04-24 20:39 43.82494 18.33803 1691 ft 0 kts 28°